Date String (YYYY-MM-DD hh:mm:ss) UTC,Instrument flags,absolute air pressure of the measurement (hPa),sample flow rate (lpm),inlet stack bypass flow (lpm),air temperature of the measurement (°C),ambient temperature measured by the external sensor (°C),aerosol sample conditioner tube jacket temperature (°C),OPC LED temperature (°C),internal box temperature (°C),relative humidity of the measurement (%),span deviation,mass concentration of particles derived from Lorenz-Mie calculation of OPC scattering (μg/m³),mass concentration of particles derived from Lorenz-Mie calculation of OPC scattering (μg/m³),mass concentration of particles derived from Lorenz-Mie calculation of OPC scattering (μg/m³)
DateTimeUTC,F1_M11,P_M11,Q1_M11,Q2_M11,T1_M11,T2_M11,T3_M11,T4_M11,T5_M11,U1_M11,ZSPAN_M11,X0_M11,X2_M11,X1_M11
2024-05-31 02:00:00,SystemResetWarning,0828.7,4.99,000.00,029.7,027.7,000.0,038.4,031.1,021.1,0000.0,0017.26,0004.48,0003.06
2024-05-31 02:01:00,SystemResetWarning,0828.7,5.01,000.00,029.7,028.1,000.0,038.3,031.2,021.1,0000.0,0017.95,0004.51,0003.06
2024-05-31 02:02:00,SystemResetWarning,0828.7,5.01,000.00,029.8,028.4,000.0,038.3,031.4,021.2,0000.0,0018.32,0004.56,0003.06
2024-05-31 02:03:00,SystemResetWarning,0828.7,4.99,000.00,029.8,028.6,000.0,038.3,031.5,021.4,0000.0,0017.78,0004.60,0003.09
2024-05-31 02:04:00,SystemResetWarning,0828.8,4.99,000.00,029.9,028.8,000.0,038.3,031.6,021.3,0000.0,0019.02,0004.60,0003.10
2024-05-31 02:05:00,SystemResetWarning,0828.8,4.99,000.00,029.9,029.0,000.0,038.3,031.7,021.1,0000.0,0019.58,0004.56,0003.09
2024-05-31 02:06:00,SystemResetWarning,0828.9,5.00,000.00,030.0,029.2,000.0,038.3,031.8,021.1,0000.0,0020.30,0004.54,0003.09
2024-05-31 02:07:00,SystemResetWarning,0829.0,5.01,000.00,030.0,029.3,000.0,038.3,031.8,021.2,0000.0,0022.40,0004.60,0003.10
2024-05-31 02:08:00,SystemResetWarning,0829.0,4.99,000.00,030.1,029.4,000.0,038.3,031.9,021.0,0000.0,0022.60,0004.58,0003.11
2024-05-31 02:09:00,SystemResetWarning,0829.0,5.00,000.00,030.1,029.5,000.0,038.4,031.9,021.0,0000.0,0022.53,0004.60,0003.11
2024-05-31 02:10:00,SystemResetWarning,0829.0,4.99,000.00,030.2,029.6,000.0,038.4,032.0,020.9,0000.0,0022.57,0004.62,0003.11
2024-05-31 02:11:00,SystemResetWarning,0829.1,4.99,000.00,030.2,029.7,000.0,038.4,032.0,020.6,0000.0,0023.77,0004.58,0003.10
2024-05-31 02:12:00,SystemResetWarning,0829.1,5.00,000.00,030.3,029.7,000.0,038.5,032.1,020.6,0000.0,0023.05,0004.57,0003.11
2024-05-31 02:13:00,SystemResetWarning,0829.1,5.01,000.00,030.3,029.8,000.0,038.5,032.1,020.6,0000.0,0023.65,0004.52,0003.11
2024-05-31 02:14:00,SystemResetWarning,0829.1,5.01,000.00,030.4,029.9,000.0,038.5,032.2,020.6,0000.0,0023.68,0004.53,0003.10
2024-05-31 02:15:00,SystemResetWarning,0829.2,4.99,000.00,030.4,029.9,000.0,038.6,032.2,020.5,0000.0,0022.26,0004.50,0003.08
2024-05-31 02:16:00,SystemResetWarning,0829.2,5.00,000.00,030.5,030.0,000.0,038.6,032.2,020.5,0000.0,0021.83,0004.50,0003.08
2024-05-31 02:17:00,SystemResetWarning,0829.2,5.01,000.00,030.5,030.0,000.0,038.6,032.3,020.4,0000.0,0022.15,0004.49,0003.08
2024-05-31 02:18:00,SystemResetWarning,0829.2,5.01,000.00,030.6,030.1,000.0,038.7,032.3,020.3,0000.0,0019.18,0004.39,0003.07
2024-05-31 02:19:00,SystemResetWarning,0829.1,4.98,000.00,030.4,028.7,000.0,038.7,031.6,020.5,0000.0,0019.14,0004.40,0003.05
2024-05-31 02:20:00,SystemResetWarning,0829.0,5.00,000.00,030.0,026.7,000.0,038.7,030.6,021.0,0000.0,0019.57,0004.39,0003.04
2024-05-31 02:21:00,SystemResetWarning,0829.0,5.01,000.00,029.7,026.7,000.0,038.7,030.5,021.3,0000.0,0020.37,0004.38,0003.03
2024-05-31 02:22:00,SystemResetWarning,0829.0,4.99,000.00,029.7,027.1,000.0,038.5,030.7,021.4,0000.0,0019.16,0004.36,0003.04
2024-05-31 02:23:00,SystemResetWarning,0829.0,5.01,000.00,029.7,027.5,000.0,038.4,031.0,021.4,0000.0,0019.07,0004.36,0003.03
2024-05-31 02:24:00,SystemResetWarning,0829.0,5.01,000.00,029.7,027.9,000.0,038.3,031.2,021.5,0000.0,0018.67,0004.42,0003.03
2024-05-31 02:25:00,SystemResetWarning,0828.9,5.00,000.00,029.7,028.2,000.0,038.3,031.3,021.4,0000.0,0017.65,0004.36,0003.05
2024-05-31 02:26:00,SystemResetWarning,0829.0,4.99,000.00,029.8,028.5,000.0,038.3,031.4,021.3,0000.0,0017.08,0004.31,0003.08
2024-05-31 02:27:00,SystemResetWarning,0829.0,5.00,000.00,029.8,028.7,000.0,038.3,031.5,021.4,0000.0,0017.07,0004.33,0003.10
2024-05-31 02:28:00,SystemResetWarning,0828.9,5.00,000.00,029.9,028.9,000.0,038.3,031.6,021.3,0000.0,0018.20,0004.38,0003.10
2024-05-31 02:29:00,SystemResetWarning,0829.0,5.00,000.00,029.9,029.1,000.0,038.3,031.7,021.4,0000.0,0019.22,0004.40,0003.11
2024-05-31 02:30:00,SystemResetWarning,0829.0,5.00,000.00,030.0,029.2,000.0,038.3,031.7,021.3,0000.0,0019.52,0004.39,0003.13
2024-05-31 02:31:00,SystemResetWarning,0829.1,5.01,000.00,030.1,029.4,000.0,038.3,031.8,021.7,0000.0,0018.90,0004.38,0003.13
2024-05-31 02:32:00,SystemResetWarning,0829.1,5.01,000.00,030.1,029.5,000.0,038.3,031.9,022.1,0000.0,0019.03,0004.47,0003.15
2024-05-31 02:33:00,SystemResetWarning,0829.3,5.01,000.00,030.2,029.6,000.0,038.4,032.0,022.0,0000.0,0021.55,0004.53,0003.18
2024-05-31 02:34:00,SystemResetWarning,0829.4,4.99,000.00,030.2,029.7,000.0,038.4,032.0,022.2,0000.0,0022.49,0004.57,0003.19
2024-05-31 02:35:00,SystemResetWarning,0829.4,4.99,000.00,030.3,029.7,000.0,038.4,032.1,022.4,0000.0,0021.88,0004.56,0003.20
2024-05-31 02:36:00,SystemResetWarning,0829.3,5.00,000.00,030.3,029.8,000.0,038.5,032.1,022.7,0000.0,0022.74,0004.66,0003.20
2024-05-31 02:37:00,SystemResetWarning,0829.3,5.01,000.00,030.4,029.9,000.0,038.5,032.1,022.2,0000.0,0024.75,0004.74,0003.20
2024-05-31 02:38:00,SystemResetWarning,0829.4,5.01,000.00,030.4,029.9,000.0,038.5,032.2,022.7,0000.0,0027.16,0004.80,0003.20
2024-05-31 02:39:00,SystemResetWarning,0829.3,5.01,000.00,030.5,030.0,000.0,038.5,032.3,022.4,0000.0,0026.28,0004.80,0003.21
2024-05-31 02:40:00,SystemResetWarning,0829.4,4.99,000.00,030.5,030.0,000.0,038.6,032.3,022.4,0000.0,0025.15,0004.82,0003.23
2024-05-31 02:41:00,SystemResetWarning,0829.4,4.98,000.00,030.5,029.5,000.0,038.6,032.0,023.0,0000.0,0024.70,0004.92,0003.25
2024-05-31 02:42:00,SystemResetWarning,0829.4,5.01,000.00,030.1,027.1,000.0,038.7,030.8,023.3,0000.0,0025.35,0004.99,0003.27
2024-05-31 02:43:00,SystemResetWarning,0829.3,5.01,000.00,029.8,026.4,000.0,038.7,030.4,023.5,0000.0,0025.00,0004.93,0003.28
2024-05-31 02:44:00,SystemResetWarning,0829.5,5.01,000.00,029.6,026.7,000.0,038.5,030.5,023.9,0000.0,0022.22,0004.95,0003.29
2024-05-31 02:45:00,SystemResetWarning,0829.6,4.99,000.00,029.6,027.1,000.0,038.4,030.8,025.1,0000.0,0021.76,0005.02,0003.32
2024-05-31 02:46:00,SystemResetWarning,0829.6,5.00,000.00,029.6,027.6,000.0,038.3,031.0,027.2,0000.0,0024.10,0005.24,0003.40
2024-05-31 02:47:00,SystemResetWarning,0829.6,5.00,000.00,029.6,027.9,000.0,038.3,031.1,026.1,0000.0,0025.20,0005.53,0003.47
2024-05-31 02:48:00,SystemResetWarning,0829.7,5.01,000.00,029.7,028.2,000.0,038.2,031.3,025.7,0000.0,0024.69,0005.76,0003.54
2024-05-31 02:49:00,SystemResetWarning,0829.7,5.00,000.00,029.7,028.5,000.0,038.2,031.4,025.1,0000.0,0023.26,0005.99,0003.63
2024-05-31 02:50:00,SystemResetWarning,0829.8,5.00,000.00,029.8,028.7,000.0,038.2,031.5,024.9,0000.0,0023.62,0006.20,0003.69
2024-05-31 02:51:00,SystemResetWarning,0829.9,5.00,000.00,029.8,028.9,000.0,038.2,031.5,024.3,0000.0,0024.88,0006.50,0003.77
2024-05-31 02:52:00,SystemResetWarning,0829.9,4.99,000.00,029.8,029.0,000.0,038.2,031.6,023.6,0000.0,0025.18,0006.57,0003.81
2024-05-31 02:53:00,SystemResetWarning,0829.9,5.00,000.00,029.9,029.2,000.0,038.2,031.7,023.2,0000.0,0025.60,0006.59,0003.84
2024-05-31 02:54:00,SystemResetWarning,0830.0,4.99,000.00,029.9,029.3,000.0,038.2,031.7,023.0,0000.0,0025.94,0006.63,0003.85
2024-05-31 02:55:00,SystemResetWarning,0830.0,4.99,000.00,030.0,029.4,000.0,038.3,031.8,023.2,0000.0,0025.44,0006.64,0003.87
2024-05-31 02:56:00,SystemResetWarning,0830.0,5.00,000.00,030.0,029.5,000.0,038.3,031.9,023.4,0000.0,0025.67,0006.62,0003.86
2024-05-31 02:57:00,SystemResetWarning,0830.0,5.00,000.00,030.1,029.6,000.0,038.3,031.9,022.9,0000.0,0023.18,0006.42,0003.80
2024-05-31 02:58:00,SystemResetWarning,0830.1,5.00,000.00,030.1,029.6,000.0,038.4,031.9,022.9,0000.0,0021.12,0006.07,0003.75
2024-05-31 02:59:00,SystemResetWarning,0830.1,5.01,000.00,030.2,029.7,000.0,038.4,032.0,023.2,0000.0,0019.80,0005.87,0003.71
